Location: ??????
(55.4348°N, 39.2112°E)
Time: 05:47:35
(UTC+00:00)

Cosmos 1975 - Pass Details

Date: 14 April 2024
Orbit: 514 x 533 km, 82.5° (Epoch: 22 May)

Event Time Altitude Azimuth Distance (km) Brightness Sun altitude
Rises 01:21:48 0° 343° (NNW) 2,649 6.5 -8.4°
Reaches altitude 10° 01:24:00 10° 338° (NNW) 1,758 5.5 -8.2°
Maximum altitude 01:27:40 44° 265° (W) 726 3.0 -7.7°
Drops below altitude 10° 01:31:20 10° 193° (SSW) 1,751 5.0 -7.3°
Sets 01:33:31 0° 187° (S) 2,637 6.0 -7.0°
